OBJECT AR, 67287

Orbit data source: Space-Track

You're viewing an Uncataloged Satellite

Recently launched and/or uncataloged satellites may have evolving metadata. Metadata may include but not limited to: Owner, Maufacturer, Bus, Motor, and Mission.

OBJECT AR, 67287 is a satellite in SSO that was launched on Sun, 28 Dec 2025 UTC via a SOYUZ-2-1B launch vehicle from the Vostochny Cosmodrome (VOSTO). Unknown objects in Earth's orbit typically refer to objects detected orbiting the Earth but have not yet been identified or cataloged. These objects could be anything from previously untracked satellites, spent rocket stages, debris from satellite collisions, or even natural meteoroids temporarily captured by Earth's gravity.

Loading next visibility...
Identifier
67287, 2025-313AR
Orbit
SSO
Country
Flag of TBDTBD
Related business
Manufacturer
MSR
Mission
Operational Commercial Technology
Bus & Motor
CUBESAT 1U, Unknown motor
Mass
1 kg wet, 1 kg dry
Launch date (UTC)
2025-12-28 (6 months ago)
Launch vehicle
SOYUZ-2-1B
Launch site
Vostochny Cosmodrome (VOSTO)
Object type
Unknown
Shape & HBR
Box, 0.1 m
Radar Cross Section
0.015 m², Medium (>0.1 m² and < 1m²)

Expand to show TLE details & history
Last TLE update: 9 hours ago

TLE from 9 hours ago
0 OBJECT AR
1 67287U 25313AR  26171.46522022  .00007033  00000-0  28787-3 0  9992
2 67287  97.3930 246.4051 0008869 353.9925   6.1205 15.24594529 26471
Epoch: 2026-06-20T11:09Z
TLE epoch observation values (Epoch: 2026-06-20T11:09:55.027Z)
Latitude
0.00003°
Longitude
170.24636°
Altitude
489.04 km
Speed
7.624 km/s
True Right ascension
16h 25m 37s
True Declination
0° 00' 00"
Sunlit
Object was in full shadow at epoch
Visualization orbit readout
Latitude
Unknown
Longitude
Unknown
Altitude
Unknown
Speed
Unknown
Apparent Right ascension
Unknown
Apparent Declination
Unknown
Sunlit
N/A
Visualization observer readout
Local Sidereal Time
07:21:32
Azimuth
Unknown
Elevation
Unknown
Doppler factor
Unknown
Orbital elements
Apogee altitude
495.053 km
Perigee altitude
482.872 km
Semi-major axis
6,867.099 km
Eccentricity
0.00089
Inclination
97.393°
RAAN
246.4051°
Arg. of periapsis
353.9925°
True anomaly
6.13135°
Mean anomaly
6.1205°
Eccentric anomaly
6.12592°
Mean motion
3.81402 °/min
Orbital period
94.39 mins
BSTAR
0.00028787
Loading maneuver chart data...
Computing Atmospheric mass density...
Loading historical data...
Loading historical data...
Loading historical data...
Loading historical data...
Loading historical data...
Loading historical data...
Loading historical data...

Documentation

Showing up to 5 results
|